Regional Weather Roundup
Issued by NWS

Home | Current Version | Previous Version | Graphics & Text | Print | Product List | Glossary On
Versions: 1 2 3 4 5 6 7 8 9 10 11 12 13 14 15 16 17 18 19 20 21 22 23 24 25 26 27 28 29 30 31 32 33 34 35 36 37 38 39 40 41 42 43 44 45 46 47 48 49 50
000
ASUS43 KBIS 301620
RWRND

NORTH DAKOTA REGIONAL WEATHER ROUNDUP
NATIONAL WEATHER SERVICE BISMARCK ND
1100 AM CDT MON MAR 30 2015

NOTE: "FAIR" INDICATES FEW OR NO CLOUDS BELOW 12,000 FEET WITH NO
SIGNIFICANT WEATHER AND/OR OBSTRUCTIONS TO VISIBILITY.


NDZ001>003-009>011-017-301700-
NORTHWEST NORTH DAKOTA

CITY           SKY/WX    TMP DP  RH WIND       PRES   REMARKS
WILLISTON      SUNNY     56  37  49 NW9       29.93R
MINOT          SUNNY     52  36  54 W16       29.83R
MINOT AFB      SUNNY     51  40  68 NW17      29.82R
$$

NDZ018>021-031>035-040>046-301700-
SOUTHWEST NORTH DAKOTA

CITY           SKY/WX    TMP DP  RH WIND       PRES   REMARKS
BISMARCK       MOSUNNY   57  35  43 NW23G29   29.87R
DICKINSON      MOSUNNY   55  33  43 NW25G32   29.92R
GARRISON         N/A     54  38  54 NW22      29.85R
HETTINGER ARPT PTSUNNY   58  32  37 NW25G33   29.96R
$$

NDZ004>008-012>016-024-026-027-054-301700-
NORTHEAST NORTH DAKOTA

CITY           SKY/WX    TMP DP  RH WIND       PRES   REMARKS
GRAND FORKS    CLOUDY    43  37  79 SE12      29.80F
GRND FRKS AFB  PTSUNNY   45  37  75 SE14      29.79F
DEVILS LAKE    CLOUDY    45  36  70 E6        29.79S
$$

NDZ022-023-025-028>030-036>039-047>053-301700-
SOUTHEAST NORTH DAKOTA

CITY           SKY/WX    TMP DP  RH WIND       PRES   REMARKS
FARGO          CLOUDY    46  33  60 E6        29.85S
JAMESTOWN      MOSUNNY   54  34  46 NW12      29.78F
$$



USA.gov is the U.S. government's official web portal to all federal, state and local government web resources and services.